www.pogodaiklimat.ru

Погода и климат >> Архив погоды >> Россия >> Тува >> Кызыл


АРХИВ ПОГОДЫ в Кызыле

Время (UTC), дата Ветер
(напр.,м/с)
 
Видим.   Явления Облачность Т
(С)
Тd
(С)
f
(%)
Тe
(С)
Тes
(С)
Комфортность P
(гПа)
Po
(гПа)
Тmin
(С)
Tmax
(С)
R
(мм)
R24
(мм)
S
(см)
03 15.04 В 2 50 км 9/0
[Ci fib]
+10.0 -1.9 43 +9 +16 тепло 1005.8 932.6
06 15.04 СВ 3 50 км 9/8 1000 м
[Cb cap Ac trans Ci fib]
+14.4 -0.5 36 +14 +15 тепло 1001.4 929.6
09 15.04 СЗ 4
{11}
50 км 9/6 1000 м
[Cb cap Ac trans Ci fib]
+15.4 -1.6 31 +15 +16 тепло 1000.4 928.9
12 15.04 С 4 50 км 9/6 1000 м
[Cb cap Ac trans Ci sp]
+12.8 0.0 41 +11 +11 тепло 1000.7 928.6 +16.0
15 15.04 СЗ 3
{12}
10 км 10/10 1000 м
[Cb cap]
+9.8 +0.8 53 +8 +8 тепло 1000.1 927.3
18 15.04 СВ 1 10 км 10/10 1000 м
[Cb cap]
+9.6 +2.3 60 +9 +9 тепло 997.8 925.1
21 15.04 ЮВ 1 10 км 8/4 1000 м
[Cb cap Ac trans Ci fib]
+6.1 +1.6 73 +5 +5 тепло 1095.2 921.9
00 16.04 ЮЗ 2 50 км {ливн. осадки} 10/10 1000 м
[Cb cap]
+6.3 +1.8 73 +4 +4 тепло 993.3 920.1 +4.1 0.0
03 16.04 СВ 1 50 км 10/6 1000 м
[Cb cap Ac As]
+8.4 +1.9 64 +8 +9 тепло 992.5 919.9
06 16.04 С 4 50 км 10/10 1000 м
[Cb cap]
+12.6 +3.2 53 +11 +11 тепло 991.8 920.4
09 16.04 С 9-17
{17}
50 км {ливн. осадки} 8/6 1000 м
[Cb cap Ac trans]
+9.4 -2.2 44 +5 +6 прохладно 997.7 924.9
12 16.04 СЗ 7
{16}
50 км {ливн. осадки} 8/6 1000 м
[Cb cap Ac trans]
+7.5 -9.6 29 +4 +4 прохладно 1003.7 930.0 +13.1 2
15 16.04 З 3
{12}
10 км 8/3 1000 м
[Sc Ci fib]
+3.5 -9.0 39 +1 +1 прохладно 1008.8 933.7
18 16.04 С 2
{10}
10 км 5/1 1000 м
[Sc Ac trans Ci fib]
+1.9 -8.3 47 -1 -1 по сезону 1012.4 936.5
21 16.04 СЗ 1 10 км 4/3 1000 м
[Sc Ci fib]
-1.6 -8.1 61 -3 -3 по сезону 1015.6 938.6
00 17.04 Ю 1 50 км 1/1 1000 м
[Sc]
0.0 -8.3 54 -1 -0 по сезону 1017.2 940.5 -2.2
03 17.04 В 2 50 км 3/3 1000 м
[Sc]
+4.6 -7.6 41 +3 +9 по сезону 1015.5 940.2
06 17.04 Ю 1 50 км 5/3 1000 м
[Sc Ac trans]
+8.3 -11.3 24 +9 +17 по сезону 1013.8 939.5
09 17.04 СВ 2 50 км 6/3 1000 м
[Sc Ac trans]
+9.7 -10.4 23 +9 +12 по сезону 1011.5 937.8
12 17.04 В 1 50 км 4/4 1000 м
[Cu med, cong]
+10.5 -9.0 24 +11 +11 по сезону 1010.1 936.7 +11.5
15 17.04 С 2 10 км 4/0
[Ac trans Ci fib]
+3.9 -7.4 43 +2 +2 по сезону 1012.0 936.8
18 17.04 С 1 10 км 9/0
[Ac trans Ci fib]
+0.1 -7.0 59 -1 -1 по сезону 1012.4 936.2
21 17.04 СВ 1 10 км 3/0
[Ci fib]
-1.8 -7.5 65 -4 -4 по сезону 1011.7 935.0
00 18.04 С 1 50 км 8/0
[Ci fib]
-1.8 -5.1 78 -4 -3 по сезону 1011.0 934.4 -3.3
03 18.04 В 3 50 км 5/0
[Ac trans Ci sp]
+10.0 -7.5 28 +9 +15 тепло 1004.9 931.7
06 18.04 В 4 50 км 9/4 1000 м
[Cb cap Ac trans Ci sp]
+16.2 -8.3 18 +16 +19 тепло 997.7 926.5
09 18.04 ЮЗ 5-10
{15}
20 км пыльный позёмок 8/3 1000 м
[Cb cap Ac trans Ci sp]
+22.4 -13.4 8 +20 +22 тепло 990.6 921.3
12 18.04 СЗ 6-14
{19}
20 км 8/5 1000 м
[Cb cap Ac trans Ci fib]
+10.7 -6.2 30 +8 +8 по сезону 995.6 923.3 +22.5
15 18.04 СЗ 7-17
{20}
10 км 10/10 1000 м
[Cb cap]
+3.5 -12.4 30 -1 -1 холодно 1007.5 933.4
18 18.04 С 5-10
{18}
10 км 9/6 1000 м
[Cb cap Ac trans Ci sp]
+0.4 -16.0 28 -4 -4 прохладно 1015.3 938.8
21 18.04 СЗ 3
{14}
10 км 4/0
[Ac trans]
-2.4 -18.7 27 -6 -6 прохладно 1022.6 944.8
00 19.04 З 4
{13}
50 км 6/3 1000 м
[Sc Ac trans]
-3.6 -19.6 28 -9 -8 холодно 1028.4 949.8 -4.0
03 19.04 СЗ 3
{11}
50 км 8/6 1000 м
[Cu Sc Ci fib]
-1.4 -17.1 29 -5 -3 очень
холодно
1030.5 952.4
06 19.04 З 1 50 км 5/4 1000 м
[Cu med, cong Ci fib]
+1.6 -19.9 18 +1 +10 опасность
простуды
1029.4 952.2
09 19.04 В 3 50 км 1/1 1000 м
[Sc diur, vesp]
+4.0 -19.0 17 +2 +7 холодно 1027.4 950.9
12 19.04 В 1 50 км 6/0
[Ci sp]
+3.5 -19.7 16 +3 +4 холодно 1025.4 949.0 +5.1
15 19.04 СВ 1 10 км 9/0
[Ac trans Ci fib]
-1.2 -16.6 30 -2 -2 холодно 1025.9 948.2
18 19.04 СВ 2 10 км 9/0
[Ac trans Cc]
-1.5 -15.8 33 -4 -4 прохладно 1023.2 945.6
21 19.04 штиль 0 10 км 9/0
[Ac trans Cc]
-3.6 -15.7 39 -4 -4 прохладно 1021.2 943.2
00 20.04 штиль 0 50 км 9/0
[Ac trans]
-2.5 -13.0 44 -3 -2 по сезону 1019.3 941.8 -3.6
03 20.04 СВ 3 50 км 9/0
[Ci sp]
+3.3 -1.4 71 -0 +6 прохладно 1015.5 939.9
06 20.04 ЮВ 1 50 км 5/0
[Ci fib]
+8.4 -18.2 13 +9 +23 опасность
простуды
1011.3 937.2
09 20.04 З 1 50 км 9/5 1000 м
[Cb cap Ac trans Ci fib]
+11.1 -13.2 17 +12 +14 по сезону 1008.1 934.9
12 20.04 ЮВ 2 50 км 9/4 1000 м
[Cb cap Ac trans Ci fib]
+10.6 -14.9 15 +10 +10 по сезону 1006.8 933.5 +12.4
15 20.04 В 1 10 км 9/3 1000 м
[Sc Ac trans Ci fib]
+6.3 -8.9 33 +6 +6 по сезону 1007.9 933.6
18 20.04 Ю 1 10 км 9/4 1000 м
[Sc Ac trans Ci fib]
+2.4 -8.0 46 +2 +2 по сезону 1007.6 932.3
21 20.04 штиль 0 10 км 10/0
[Ac As]
+2.3 -7.7 48 +2 +2 по сезону 1006.4 931.1
00 21.04 З 1 50 км 9/8 1000 м
[Cb cap Ac trans Ci fib]
+4.3 -8.0 40 +4 +4 тепло 1005.9 931.2 +1.1
03 21.04 З 1
{13}
20 км в посл. час ливневой дождь 10/10 1000 м
[Cb cap]
+3.7 +1.7 87 +2 +2 по сезону 1007.6 932.7
06 21.04 ЮЗ 2 10 км слаб. ливневой дождь 10/10 1000 м
[Cb cap]
+6.1 +3.2 82 +4 +4 холодно 1007.3 933.1
09 21.04 ЮЗ 2 4000 м ливневой дождь 10/10 1000 м
[Cb cap]
+5.4 +3.2 86 +3 +3 холодно 1009.2 934.7
12 21.04 СЗ 5 50 км {ливн. осадки} 6/5 1000 м
[Cb cap Ac trans]
+7.5 -4.4 43 +4 +4 холодно 1010.0 935.8 +8.5 6
15 21.04 СЗ 6-11
{12}
10 км 8/5 1000 м
[Cb cap Ac trans]
+3.9 -9.3 37 -1 -1 холодно 1015.2 939.7
18 21.04 З 3
{10}
10 км 5/3 1000 м
[Sc Ac trans]
+1.2 -6.7 56 -3 -3 прохладно 1019.1 942.6
21 21.04 Ю 1 10 км 4/1 1000 м
[Sc Ac trans Ci fib]
-2.0 -6.1 73 -4 -4 прохладно 1021.7 944.2

 

Местоположение метеостанции Кызыл (Тува, Россия): широта 51.72 долгота 94.50 высота над уровнем моря 632 м.

В архиве по умолчанию представлена погода в Кызыле за последнюю неделю. Архивные данные за месяц целиком и за предыдущие месяцы, начиная с января 2011 года, Вы можете получить, выбрав интересующий диапазон дат из раскрывающегося списка и нажав кнопку "Ввод!".


*Определитесь, кто Вы:
робот инопланетянин человек

Внимание! Время в таблицах - всемирное. Для получения местного времени необходимо прибавить поправку, которая равна 7 ч.

Смотрите также архив погоды в соседних городах и на ближайших метеорологических станциях:

Погода в Туране (Тува, Россия) (61 км)
Погода в Сосновке (Тува, Россия) (63 км)
Погода в Сарыг-Сепе (Тува, Россия) (78 км)
Погода в Хову-Аксы (Тува, Россия) (81 км)
Погода в Нижнеусинском (Красноярский край, Россия) (118 км)
Погода в Шагонаре (Тува, Россия) (127 км)
Погода в Тоора-Хем (Тува, Россия) (138 км)
Погода в Оленьей Речке (Красноярский край, Россия) (148 км)
Погода в Усть-Усе (Красноярский край, Россия) (159 км)
Погода в Эрзине (Тува, Россия) (167 км)

Пояснения к столбцам:

Ветер - указаны скорость ветра в м/с - средняя за 10 мин, порывы в срок и между сроками (в фигурных скобках) и направление, откуда дует ветер: С - северный, СВ - северо-восточный, В - восточный, ЮВ - юго-восточный, Ю - южный, ЮЗ - юго-западный, З - западный, СЗ - северо-западный.
Видимость - горизонтальная дальность видимости в метрах или километрах. При видимости от 1 до 10 км при отсутствии осадков обычно наблюдается дымка, при ухудшении видимости до 1 км и менее - туман. В сухую погоду видимость может ухудшаться дымом, пылью или мглою.
Явления - указаны атмосферные явления, наблюдавшиеся в срок или в последний час перед сроком; фигурными скобками обозначены явления, наблюдавшиеся между сроками (за 1-3 часа до срока); квадратными скобками обозначены град или гололедные отложения с указанием их диаметра в мм.
Облачность - указаны через наклонную черту общая и нижняя облачность в баллах и высота нижней границы облаков в метрах; квадратными скобками обозначены формы облаков: Ci - перистые, Cs - перисто-слоистые, Cc - перисто-кучевые, Ac - высококучевые, As - высокослоистые, Sc - слоисто-кучевые, Ns - слоисто-дождевые, Cu - кучевые, Cb - кучево-дождевые. Подробнее классификацию облаков см. в Атласе облаков (PDF).
T - Температура воздуха - температура, измеренная на высоте 2 м над землей.
Td - Температура точки росы - температура, при понижении до которой содержащийся в воздухе водяной пар достигнет насыщения.
f - Относительная влажность воздуха - влажноcть воздуха, измеренная на высоте 2 м над землей.
Te - Эффективная температура - температура, которую ощущает одетый по сезону человек в тени. Характеристика душности погоды. При расчете учитывается влияние влажности воздуха и скорости ветра на теплоощущения человека.
Tes - Эффективная температура на солнце - температура, которую ощущает человек, с поправкой на солнечный нагрев. Характеристика знойности погоды. Зависит от высоты солнца над горизонтом, облачности и скорости ветра. Ночью, в пасмурную погоду, а также при ветре 12 м/с и более поправка равна нулю.
P - Атмосферное давление - приведенное к уровню моря атмосферное давление.
Po - Атмосферное давление - измеренное на уровне метеостанции атмосферное давление.
Tmin - Минимальная температура - минимум температуры воздуха на высоте 2 м над землей.
Tmax - Максимальная температура - максимум температуры воздуха на высоте 2 м над землей.
R - Количество осадков - Количество выпавших осадков за период времени, мм. При наведении курсора мыши на число - период времени, за который выпало указанное количество осадков.
R24 - Количество осадков - Количество выпавших осадков за 24 часа, мм.
S - Снежный покров - Высота снежного покрова, см. При наведении курсора мыши на число - состояние снежного покрова и степень покрытия местности в баллах.